SATCOM C5

导读 | 豆包AI

SATCOM C5是美国于1982年10月28日08:00发射的通信卫星,隶属于SATCOM系列卫星系统。该卫星主要承担全球卫星通信任务,可为军事、商业领域提供远距离通信中继服务,是美国早期卫星通信网络的重要组成部分。作为冷战时期美国空间通信布局的一环,SATCOM C5见证了全球卫星通信技术从起步到发展的历程,在当时保障了跨地域通信覆盖,为后续卫星通信技术迭代积累了关键经验。

Basic Information
目录编号:
13631
目录名称:
SATCOM C5
国际标识:
1982-105A
轨道中心:
EARTH
卫星名称:
SATCOM C5
卫星全名:
--
卫星状态:
在轨 (已飞行15891 天)
发射日期:
1982-10-28 UTC
国别 :
美国 (US)
星等 :
--
Orbit Information
数据来源 国际轨道数据 AOE轨道数据
星历时间 2026-04-30T10:37:33+0800
21小时前
查看轨道信息
2026-04-30T12:00:00+0800
20小时前
查看轨道信息
半长轴 42164.224km 42164.14km
偏心率 0.0006067 0.0005911
轨道倾角 12.153° 12.153°
近地点辐角 48.912° 49.104°
升交点赤经 332.826° 332.825°
平近点角 129.712° 150.185°
近地点 35760.505km 35761.079km
远地点 35811.669km 35810.927km
周期 1436.071分钟 1436.067分钟
每日圈数 1.002736 1.002739
Detailed Information
使用方式:
暂无
2D Orbit Map
3D Orbit Map
Orbit Altitude Analysis Chart
Orbit Inclination Analysis Chart
Orbit Comprehensive Analysis Chart
View Comprehensive Chart